Tracking 23726 objects as of 22-Sep-2021
HD Live streaming from Space Station
objects crossing your sky now

STARLINK-1100

Track STARLINK-1100 now!
10-day predictions
STARLINK-1100 is classified as:


NORAD ID: 44943
Int'l Code: 2020-001AF
Perigee: 553.0 km
Apogee: 555.7 km
Inclination: 53.1 °
Period: 95.6 minutes
Semi major axis: 6925 km
RCS: Unknown
Launch date: January 7, 2020
Source: United States (US)
Launch site: AIR FORCE EASTERN TEST RANGE (AFETR)
aabbcc
Your satellite tracking list
Your tracking list is empty




NASA's NSSDC Master Catalog

Two Line Element Set (TLE):
1 44943U 20001AF  21265.48476427  .00000916  00000-0  80362-4 0  9994
2 44943  53.0540  80.4151 0002005 101.5675 258.5539 15.06401914 94566
Source of the keplerian elements: AFSPC